When you browse on this site, cookies collect data to enhance your experience and personalize the content and advertising you see.
Visit our Privacy Policy to learn more. By continuing to use the site, you agree to this use of cookies and data.
  • En España
  • Lista de países
  • Para 7 días
  • Temperatura del agua
  • El tiempo en el mapa
  • Informadores
  • user-avatar
    Iniciar sesión

    Tiempo cada hora Divasy

    Hoy, 30 Mayo, Sábado

    Tiempo Temperatura Precipitaciones Viento Presión Humedad
    00:00 +13°C° 0.1 mm 5 mps 737 mmHg 89%
    01:00 +13°C° 0.1 mm 5 mps 737 mmHg 91%
    02:00 +12°C° 0.1 mm 5 mps 737 mmHg 93%
    03:00 +13°C° 0 mm 5 mps 737 mmHg 93%
    04:00 +13°C° 0 mm 5 mps 736 mmHg 93%
    05:00 +13°C° 0 mm 5 mps 736 mmHg 93%
    06:00 +13°C° 0 mm 6 mps 736 mmHg 91%
    07:00 +13°C° 0 mm 6 mps 736 mmHg 89%
    08:00 +14°C° 0 mm 6 mps 736 mmHg 88%
    09:00 +14°C° 0.1 mm 6 mps 735 mmHg 88%
    10:00 +14°C° 0.1 mm 7 mps 735 mmHg 89%
    11:00 +12°C° 0.1 mm 7 mps 735 mmHg 89%
    12:00 +12°C° 0.7 mm 7 mps 734 mmHg 91%
    13:00 +12°C° 0.7 mm 8 mps 734 mmHg 92%
    14:00 +12°C° 0.7 mm 8 mps 734 mmHg 94%
    15:00 +12°C° 0.3 mm 8 mps 733 mmHg 94%
    16:00 +12°C° 0.3 mm 9 mps 733 mmHg 94%
    17:00 +12°C° 0.3 mm 9 mps 732 mmHg 94%
    18:00 +12°C° 0.4 mm 9 mps 732 mmHg 93%
    19:00 +12°C° 0.4 mm 9 mps 732 mmHg 93%
    20:00 +12°C° 0.4 mm 9 mps 733 mmHg 92%
    21:00 +12°C° 1.2 mm 9 mps 733 mmHg 93%
    22:00 +12°C° 1.2 mm 9 mps 733 mmHg 94%
    23:00 +12°C° 1.2 mm 8 mps 733 mmHg 94%

    Mañana, 31 Mayo, Domingo

    Tiempo Temperatura Precipitaciones Viento Presión Humedad
    00:00 +11°C° 2.3 mm 8 mps 733 mmHg 95%
    01:00 +11°C° 2.3 mm 7 mps 733 mmHg 95%
    02:00 +11°C° 2.3 mm 7 mps 733 mmHg 95%
    03:00 +11°C° 2.3 mm 7 mps 733 mmHg 96%
    04:00 +10°C° 2.3 mm 7 mps 733 mmHg 96%
    05:00 +10°C° 2.3 mm 7 mps 733 mmHg 96%
    06:00 +10°C° 1.3 mm 7 mps 733 mmHg 95%
    07:00 +10°C° 1.3 mm 8 mps 734 mmHg 95%
    08:00 +9°C° 1.3 mm 8 mps 734 mmHg 94%
    09:00 +9°C° 1.2 mm 8 mps 734 mmHg 93%
    10:00 +9°C° 1.2 mm 7 mps 735 mmHg 92%
    11:00 +9°C° 1.2 mm 7 mps 735 mmHg 91%
    12:00 +10°C° 0.3 mm 6 mps 736 mmHg 87%
    13:00 +11°C° 0.3 mm 6 mps 736 mmHg 82%
    14:00 +13°C° 0.3 mm 5 mps 736 mmHg 77%
    15:00 +13°C° 0.1 mm 5 mps 737 mmHg 76%
    16:00 +13°C° 0.1 mm 5 mps 737 mmHg 74%
    17:00 +13°C° 0.1 mm 5 mps 737 mmHg 73%
    18:00 +12°C° 0.1 mm 5 mps 738 mmHg 74%
    19:00 +10°C° 0.1 mm 5 mps 738 mmHg 75%
    20:00 +10°C° 0.1 mm 4 mps 738 mmHg 76%
    21:00 +8°C° 0 mm 4 mps 739 mmHg 76%
    22:00 +7°C° 0 mm 4 mps 739 mmHg 77%
    23:00 +5°C° 0 mm 4 mps 739 mmHg 78%

    Pasado mañana, 1 Junio, Lunes

    Tiempo Temperatura Precipitaciones Viento Presión Humedad
    00:00 +5°C° 0 mm 4 mps 739 mmHg 79%
    01:00 +4°C° 0 mm 4 mps 739 mmHg 79%
    02:00 +4°C° 0 mm 4 mps 739 mmHg 80%
    03:00 +4°C° 0 mm 4 mps 739 mmHg 80%
    04:00 +3°C° 0 mm 5 mps 739 mmHg 80%
    05:00 +3°C° 0 mm 5 mps 739 mmHg 80%
    06:00 +5°C° 0 mm 5 mps 739 mmHg 75%
    07:00 +6°C° 0 mm 5 mps 739 mmHg 71%
    08:00 +7°C° 0 mm 6 mps 739 mmHg 66%
    09:00 +7°C° 0 mm 6 mps 740 mmHg 65%
    10:00 +8°C° 0 mm 6 mps 740 mmHg 64%
    11:00 +8°C° 0 mm 6 mps 740 mmHg 63%
    12:00 +8°C° 0 mm 6 mps 740 mmHg 67%
    13:00 +8°C° 0 mm 5 mps 740 mmHg 71%
    14:00 +7°C° 0 mm 5 mps 740 mmHg 75%
    15:00 +7°C° 0.1 mm 5 mps 740 mmHg 79%
    16:00 +7°C° 0.1 mm 5 mps 740 mmHg 83%
    17:00 +6°C° 0.1 mm 4 mps 740 mmHg 87%
    18:00 +6°C° 0.1 mm 4 mps 740 mmHg 88%
    19:00 +7°C° 0.1 mm 3 mps 740 mmHg 89%
    20:00 +7°C° 0.1 mm 3 mps 740 mmHg 90%
    21:00 +7°C° 0 mm 3 mps 740 mmHg 90%
    22:00 +7°C° 0 mm 3 mps 740 mmHg 91%
    23:00 +5°C° 0 mm 3 mps 740 mmHg 91%

    2 Junio, Martes

    Tiempo Temperatura Precipitaciones Viento Presión Humedad
    00:00 +5°C° 0 mm 3 mps 740 mmHg 92%
    01:00 +5°C° 0 mm 3 mps 740 mmHg 93%
    02:00 +5°C° 0 mm 3 mps 739 mmHg 94%
    03:00 +5°C° 0 mm 4 mps 739 mmHg 93%
    04:00 +5°C° 0 mm 4 mps 739 mmHg 92%
    05:00 +5°C° 0 mm 4 mps 739 mmHg 91%
    06:00 +6°C° 0 mm 5 mps 739 mmHg 85%
    07:00 +8°C° 0 mm 5 mps 739 mmHg 79%
    08:00 +9°C° 0 mm 5 mps 739 mmHg 72%
    09:00 +10°C° 0.1 mm 6 mps 739 mmHg 68%
    10:00 +13°C° 0.1 mm 6 mps 739 mmHg 64%
    11:00 +14°C° 0.1 mm 6 mps 739 mmHg 59%
    12:00 +13°C° 0.1 mm 6 mps 739 mmHg 62%
    13:00 +13°C° 0.1 mm 6 mps 739 mmHg 64%
    14:00 +13°C° 0.1 mm 6 mps 738 mmHg 66%
    15:00 +13°C° 0 mm 5 mps 738 mmHg 69%
    16:00 +13°C° 0 mm 5 mps 738 mmHg 71%
    17:00 +12°C° 0 mm 5 mps 738 mmHg 73%
    18:00 +10°C° 0 mm 5 mps 738 mmHg 76%
    19:00 +10°C° 0 mm 4 mps 738 mmHg 80%
    20:00 +8°C° 0 mm 4 mps 737 mmHg 83%
    21:00 +8°C° 0 mm 4 mps 737 mmHg 84%
    22:00 +8°C° 0 mm 4 mps 737 mmHg 84%
    23:00 +8°C° 0 mm 5 mps 737 mmHg 84%

    3 Junio, Miércoles

    Tiempo Temperatura Precipitaciones Viento Presión Humedad
    00:00 +8°C° 0 mm 5 mps 737 mmHg 84%
    01:00 +8°C° 0 mm 5 mps 736 mmHg 84%
    02:00 +8°C° 0 mm 5 mps 736 mmHg 83%
    03:00 +8°C° 0.3 mm 5 mps 736 mmHg 87%
    04:00 +8°C° 0.3 mm 5 mps 735 mmHg 91%
    05:00 +8°C° 0.3 mm 5 mps 735 mmHg 95%
    06:00 +8°C° 0.9 mm 5 mps 735 mmHg 96%
    07:00 +8°C° 0.9 mm 5 mps 735 mmHg 96%
    08:00 +9°C° 0.9 mm 5 mps 735 mmHg 97%
    09:00 +9°C° 1.2 mm 5 mps 735 mmHg 97%
    10:00 +9°C° 1.2 mm 5 mps 735 mmHg 97%
    11:00 +10°C° 1.2 mm 5 mps 735 mmHg 97%
    12:00 +10°C° 0.7 mm 5 mps 735 mmHg 96%
    13:00 +10°C° 0.7 mm 5 mps 735 mmHg 96%
    14:00 +12°C° 0.7 mm 5 mps 734 mmHg 96%
    15:00 +12°C° 0.1 mm 4 mps 734 mmHg 95%
    16:00 +13°C° 0.1 mm 4 mps 734 mmHg 94%
    17:00 +14°C° 0.1 mm 4 mps 734 mmHg 92%
    18:00 +13°C° 0.3 mm 4 mps 734 mmHg 94%
    19:00 +13°C° 0.3 mm 3 mps 734 mmHg 95%
    20:00 +13°C° 0.3 mm 2 mps 734 mmHg 96%
    21:00 +13°C° 0.1 mm 2 mps 734 mmHg 96%
    22:00 +12°C° 0.1 mm 2 mps 734 mmHg 96%
    23:00 +12°C° 0.1 mm 2 mps 734 mmHg 97%

    4 Junio, Jueves

    Tiempo Temperatura Precipitaciones Viento Presión Humedad
    00:00 +11°C° 0 mm 1 mps 734 mmHg 96%
    01:00 +11°C° 0 mm 1 mps 734 mmHg 96%
    02:00 +10°C° 0 mm 1 mps 734 mmHg 95%
    03:00 +10°C° 0 mm 1 mps 734 mmHg 95%
    04:00 +10°C° 0 mm 1 mps 734 mmHg 95%
    05:00 +10°C° 0 mm 1 mps 734 mmHg 95%
    06:00 +12°C° 0 mm 1 mps 734 mmHg 91%
    07:00 +13°C° 0 mm 2 mps 734 mmHg 87%
    08:00 +15°C° 0 mm 2 mps 734 mmHg 82%
    09:00 +16°C° 0.2 mm 2 mps 734 mmHg 78%
    10:00 +16°C° 0.2 mm 3 mps 734 mmHg 73%
    11:00 +17°C° 0.2 mm 3 mps 734 mmHg 68%
    12:00 +18°C° 0.2 mm 3 mps 734 mmHg 67%
    13:00 +18°C° 0.2 mm 3 mps 734 mmHg 65%
    14:00 +18°C° 0.2 mm 3 mps 734 mmHg 64%
    15:00 +18°C° 0.2 mm 3 mps 734 mmHg 67%
    16:00 +18°C° 0.2 mm 3 mps 734 mmHg 70%
    17:00 +17°C° 0.2 mm 2 mps 734 mmHg 72%
    18:00 +16°C° 0.1 mm 2 mps 734 mmHg 78%
    19:00 +14°C° 0.1 mm 2 mps 734 mmHg 84%
    20:00 +13°C° 0.1 mm 2 mps 733 mmHg 90%
    21:00 +12°C° 0 mm 2 mps 733 mmHg 91%
    22:00 +10°C° 0 mm 2 mps 733 mmHg 92%
    23:00 +10°C° 0 mm 2 mps 733 mmHg 94%
    Mostrar más